CW2157 Weather Reports


time (UTC)temp
C
wind
direction
speed
KPH
gust
KPH
rain 1hr
cm
rain 24hr
cm
rain mn
cm
humidity
%
barometer
mb
20260901175705 32 186 8.0 12.9 0.00 0.00 0.00 70 1013.6
20260901175205 32 188 8.0 11.3 0.00 0.00 0.00 68 1013.7
20260901174705 33 187 4.8 9.7 0.00 0.00 0.00 70 1013.6
20260901174205 33 179 3.2 11.3 0.00 0.00 0.00 65 1013.6
20260901173705 33 205 8.0 11.3 0.00 0.00 0.00 68 1013.7
20260901173205 33 232 8.0 11.3 0.00 0.00 0.00 70 1013.8
20260901172705 33 209 9.7 12.9 0.00 0.00 0.00 67 1013.9
20260901172205 33 190 6.4 14.5 0.00 0.00 0.00 71 1013.9
20260901171705 32 181 9.7 14.5 0.00 0.00 0.00 71 1013.8
20260901171205 32 174 9.7 16.1 0.00 0.00 0.00 71 1013.8
20260901170705 32 197 8.0 14.5 0.00 0.00 0.00 71 1013.8
20260901170205 32 204 9.7 14.5 0.00 0.00 0.00 71 1013.8
20260901165705 32 187 11.3 12.9 0.00 0.00 0.00 71 1013.9
20260901165205 32 192 9.7 12.9 0.00 0.00 0.00 72 1013.9
20260901164705 32 193 9.7 12.9 0.00 0.00 0.00 71 1013.9
20260901164205 32 191 8.0 14.5 0.00 0.00 0.00 69 1014.1
20260901163704 32 194 8.0 12.9 0.00 0.00 0.00 68 1014.1
20260901163205 32 192 8.0 11.3 0.00 0.00 0.00 68 1014.2
20260901162705 32 236 8.0 12.9 0.00 0.00 0.00 66 1014.2
20260901162205 32 234 12.9 14.5 0.00 0.00 0.00 66 1014.3
20260901161704 32 230 9.7 12.9 0.00 0.00 0.00 65 1014.4
20260901161205 32 231 9.7 12.9 0.00 0.00 0.00 69 1014.5
20260901160705 32 208 9.7 14.5 0.00 0.00 0.00 68 1014.5
20260901160205 32 224 9.7 14.5 0.00 0.00 0.00 67 1014.5
20260901155705 32 226 8.0 14.5 0.00 0.00 0.00 67 1014.6
20260901154705 32 224 8.0 14.5 0.00 0.00 0.00 69 1014.7
20260901153705 32 229 9.7 12.9 0.00 0.00 0.00 72 1014.6
20260901153205 32 229 6.4 12.9 0.00 0.00 0.00 70 1014.8
20260901152705 31 244 11.3 14.5 0.00 0.00 0.00 74 1014.8
20260901152205 31 219 6.4 9.7 0.00 0.00 0.00 70 1014.9
20260901151705 31 245 8.0 11.3 0.00 0.00 0.00 72 1015.0
20260901151205 31 233 8.0 14.5 0.00 0.00 0.00 71 1015.1
20260901150705 31 229 8.0 12.9 0.00 0.00 0.00 75 1015.1
20260901150205 31 236 9.7 14.5 0.00 0.00 0.00 75 1015.1
20260901145205 30 235 8.0 11.3 0.00 0.00 0.00 76 1015.0
20260901144705 30 226 9.7 12.9 0.00 0.00 0.00 75 1015.0
20260901144205 30 234 6.4 9.7 0.00 0.00 0.00 72 1015.0
20260901143705 30 228 6.4 11.3 0.00 0.00 0.00 72 1015.0
20260901143204 30 233 8.0 14.5 0.00 0.00 0.00 72 1014.9
20260901142705 30 228 9.7 16.1 0.00 0.00 0.00 73 1015.0
20260901142205 30 221 3.2 9.7 0.00 0.00 0.00 73 1015.0
20260901141205 30 235 9.7 11.3 0.00 0.00 0.00 74 1014.9
20260901140705 30 236 9.7 16.1 0.00 0.00 0.00 72 1014.8
20260901140205 30 228 8.0 12.9 0.00 0.00 0.00 72 1014.9
20260901135704 30 230 4.8 14.5 0.00 0.00 0.00 73 1014.9
20260901135205 30 228 12.9 19.3 0.00 0.00 0.00 74 1015.0
20260901134206 30 222 9.7 14.5 0.00 0.00 0.00 74 1015.1
20260901133705 30 230 9.7 16.1 0.00 0.00 0.00 77 1015.1
20260901132705 29 226 6.4 14.5 0.00 0.00 0.00 77 1015.4
20260901132205 29 258 9.7 16.1 0.00 0.00 0.00 77 1015.3
20260901131205 28 233 6.4 12.9 0.00 0.00 0.00 80 1015.4
20260901130705 28 232 8.0 14.5 0.00 0.00 0.00 82 1015.4
20260901130205 28 227 6.4 14.5 0.00 0.00 0.00 85 1015.4
20260901125705 27 235 8.0 9.7 0.00 0.00 0.00 86 1015.4
20260901125205 27 223 4.8 9.7 0.00 0.00 0.00 86 1015.3
20260901124705 27 219 6.4 8.0 0.00 0.00 0.00 87 1015.3
20260901123705 26 225 6.4 9.7 0.00 0.00 0.00 91 1015.3
20260901123204 26 229 9.7 11.3 0.00 0.00 0.00 92 1015.2
20260901122705 26 224 9.7 11.3 0.00 0.00 0.00 93 1015.4
20260901122205 25 226 9.7 11.3 0.00 0.00 0.00 94 1015.3
20260901121705 25 230 8.0 11.3 0.00 0.00 0.00 95 1015.4
20260901120705 25 217 8.0 11.3 0.00 0.00 0.00 95 1015.3
20260901120204 25 217 8.0 9.7 0.00 0.00 0.00 95 1015.2
20260901115205 24 213 8.0 9.7 0.00 0.00 0.00 95 1015.3
20260901114705 24 219 6.4 8.0 0.00 0.00 0.00 94 1015.4
20260901114205 23 192 4.8 4.8 0.00 0.00 0.00 94 1015.4
20260901113704 23 171 1.6 4.8 0.00 0.00 0.00 94 1015.4
20260901113205 23 171 3.2 3.2 0.00 0.00 0.00 94 1015.3
20260901112704 23 202 1.6 3.2 0.00 0.00 0.00 94 1015.2
20260901112205 23 202 1.6 4.8 0.00 0.00 0.00 94 1015.2
20260901111705 23 224 1.6 4.8 0.00 0.00 0.00 94 1015.2
20260901110705 23 145 0.0 0.0 0.00 0.00 0.00 93 1015.3
20260901110205 23 145 0.0 1.6 0.00 0.00 0.00 93 1015.3
20260901105704 23 145 0.0 0.0 0.00 0.00 0.00 93 1015.4
20260901104705 23 145 0.0 0.0 0.00 0.00 0.00 93 1015.2
20260901104204 23 145 0.0 1.6 0.00 0.00 0.00 93 1015.1
20260901103705 23 145 0.0 0.0 0.00 0.00 0.00 93 1014.9
20260901103205 23 145 0.0 1.6 0.00 0.00 0.00 93 1014.8
20260901102705 23 145 0.0 1.6 0.00 0.00 0.00 93 1014.8
20260901102204 23 145 0.0 1.6 0.00 0.00 0.00 93 1014.8
20260901101705 23 145 1.6 3.2 0.00 0.00 0.00 93 1014.7
20260901101205 23 145 0.0 1.6 0.00 0.00 0.00 92 1014.7
20260901100705 23 145 0.0 1.6 0.00 0.00 0.00 92 1014.8
20260901100205 23 145 1.6 3.2 0.00 0.00 0.00 92 1014.9
20260901095705 23 145 1.6 4.8 0.00 0.00 0.00 92 1015.0
20260901095205 23 66 1.6 3.2 0.00 0.00 0.00 92 1015.0
20260901094704 23 113 0.0 4.8 0.00 0.00 0.00 93 1015.0
20260901094205 23 217 0.0 4.8 0.00 0.00 0.00 92 1014.9
20260901093705 23 237 1.6 4.8 0.00 0.00 0.00 92 1014.9
20260901093205 23 248 1.6 4.8 0.00 0.00 0.00 92 1014.9
20260901092705 23 233 0.0 3.2 0.00 0.00 0.00 92 1015.0
20260901092205 23 271 0.0 1.6 0.00 0.00 0.00 92 1015.0
20260901091705 23 266 4.8 9.7 0.00 0.00 0.00 92 1015.0
20260901091205 23 231 0.0 1.6 0.00 0.00 0.00 92 1015.0
20260901090705 23 270 0.0 1.6 0.00 0.00 0.00 92 1015.0
20260901090204 23 270 1.6 9.7 0.00 0.00 0.00 92 1014.9
20260901085705 24 227 3.2 8.0 0.00 0.00 0.00 92 1014.8
20260901084205 24 208 0.0 1.6 0.00 0.00 0.00 92 1015.0
20260901083704 24 208 0.0 1.6 0.00 0.00 0.00 92 1015.0
20260901082705 24 213 3.2 4.8 0.00 0.00 0.00 92 1014.8
20260901082205 24 230 4.8 8.0 0.00 0.00 0.00 92 1014.8
20260901081705 24 232 3.2 8.0 0.00 0.00 0.00 92 1014.9
20260901080705 24 286 4.8 9.7 0.00 0.00 0.00 92 1015.1
20260901080205 24 241 4.8 11.3 0.00 0.00 0.00 93 1015.0
20260901075205 25 236 6.4 9.7 0.00 0.00 0.00 93 1015.1
20260901074705 25 237 6.4 9.7 0.00 0.00 0.00 93 1015.1
20260901074205 25 214 0.0 3.2 0.00 0.00 0.00 93 1015.1
20260901072705 25 237 1.6 3.2 0.00 0.00 0.00 93 1015.1
20260901072205 25 257 3.2 4.8 0.00 0.00 0.00 93 1015.2
20260901071704 25 250 0.0 3.2 0.00 0.00 0.00 93 1015.2
20260901071204 25 322 0.0 4.8 0.00 0.00 0.00 93 1015.2
20260901070705 25 238 1.6 4.8 0.00 0.00 0.00 93 1015.2
20260901070205 24 245 1.6 4.8 0.00 0.00 0.00 93 1015.3
20260901065704 24 258 0.0 1.6 0.00 0.00 0.00 93 1015.3
20260901065205 24 257 4.8 8.0 0.00 0.00 0.00 93 1015.3
20260901064705 24 209 8.0 9.7 0.00 0.00 0.00 92 1015.3
20260901063705 24 196 4.8 4.8 0.00 0.00 0.00 92 1015.3
20260901063205 24 146 0.0 3.2 0.00 0.00 0.00 92 1015.4
20260901062704 24 146 0.0 1.6 0.00 0.00 0.00 91 1015.3
20260901062205 24 146 0.0 1.6 0.00 0.00 0.00 91 1015.3
20260901061705 24 146 0.0 1.6 0.00 0.00 0.00 91 1015.4
20260901061205 24 146 0.0 1.6 0.00 0.00 0.00 91 1015.4
20260901060704 24 146 0.0 0.0 0.00 0.00 0.00 91 1015.5
20260901060205 24 146 0.0 1.6 0.00 0.00 0.00 91 1015.5
20260901055705 24 146 1.6 3.2 0.00 0.00 0.00 91 1015.5
20260901055204 24 146 1.6 3.2 0.00 0.00 0.00 91 1015.6
20260901054704 24 146 0.0 1.6 0.00 0.00 0.00 90 1015.7
20260901054204 24 146 0.0 3.2 0.00 0.00 0.00 90 1015.7
20260901053705 24 146 1.6 3.2 0.00 0.00 0.00 90 1015.9
20260901053205 24 146 0.0 1.6 0.00 0.00 0.00 90 1015.9
20260901052704 24 146 0.0 3.2 0.00 0.00 0.00 89 1015.8
20260901052205 24 146 1.6 3.2 0.00 0.00 0.00 89 1016.0
20260901051705 24 146 1.6 3.2 0.00 0.00 0.00 89 1015.9
20260901051204 24 146 1.6 3.2 0.00 0.00 0.00 89 1015.9
20260901050705 24 146 1.6 3.2 0.00 0.00 0.00 89 1016.1
20260901050204 24 146 0.0 0.0 0.00 0.00 0.00 89 1016.3
20260901045705 24 146 0.0 0.0 0.00 0.00 0.00 89 1016.4
20260901045204 25 146 0.0 0.0 0.00 0.00 0.00 88 1016.3
20260901044705 25 146 1.6 3.2 0.00 0.00 0.00 88 1016.3
20260901044204 25 146 1.6 3.2 0.00 0.00 0.00 88 1016.4
20260901043205 25 146 1.6 3.2 0.00 0.00 0.00 88 1016.4
20260901042705 25 146 1.6 3.2 0.00 0.00 0.00 88 1016.5
20260901042205 25 146 1.6 3.2 0.00 0.00 0.00 88 1016.4
20260901041704 25 146 1.6 3.2 0.00 0.00 0.00 87 1016.4
20260901041205 25 146 1.6 3.2 0.00 0.00 0.00 87 1016.4
20260901040705 25 146 1.6 3.2 0.00 0.00 0.00 87 1016.4
20260901040204 25 146 1.6 4.8 0.00 0.00 0.00 87 1016.5
20260901035705 25 146 3.2 4.8 0.00 0.00 0.00 87 1016.5
20260901035204 25 169 1.6 4.8 0.00 0.00 0.00 87 1016.5
20260901034705 25 166 1.6 3.2 0.00 0.00 0.00 87 1016.4
20260901034204 25 166 0.0 3.2 0.00 0.00 0.00 87 1016.4
20260901033704 25 136 3.2 4.8 0.00 0.00 0.00 87 1016.4
20260901033204 25 126 1.6 4.8 0.00 0.00 0.00 87 1016.3
20260901032705 25 146 3.2 4.8 0.00 0.00 0.00 87 1016.3
20260901032205 25 153 3.2 8.0 0.00 0.00 0.00 87 1016.3
20260901030705 25 164 4.8 8.0 0.00 0.00 0.00 87 1015.9
20260901030205 25 162 4.8 8.0 0.00 0.00 0.00 86 1015.9
20260901025705 25 174 3.2 8.0 0.00 0.00 0.00 86 1016.0
20260901025205 25 165 4.8 8.0 0.00 0.00 0.00 86 1016.0
20260901024704 25 194 6.4 11.3 0.00 0.00 0.00 86 1016.1
20260901024204 25 183 4.8 12.9 0.00 0.00 0.00 86 1016.0
20260901023705 25 178 4.8 11.3 0.00 0.00 0.00 86 1016.0
20260901023205 25 190 4.8 14.5 0.00 0.00 0.00 86 1016.0
20260901022704 25 172 6.4 9.7 0.00 0.00 0.00 86 1015.9
20260901022204 25 170 6.4 12.9 0.00 0.00 0.00 85 1016.0
20260901021705 25 190 8.0 12.9 0.00 0.00 0.00 85 1016.0
20260901021204 25 191 8.0 12.9 0.00 0.00 0.00 86 1016.0
20260901020705 25 169 6.4 9.7 0.00 0.00 0.00 85 1016.1
20260901020205 25 186 8.0 11.3 0.00 0.00 0.00 85 1016.2
20260901015705 25 167 8.0 12.9 0.00 0.00 0.00 85 1016.3
20260901015204 25 175 8.0 12.9 0.00 0.00 0.00 85 1016.3
20260901014705 25 185 6.4 11.3 0.00 0.00 0.00 85 1016.4
20260901014204 25 163 4.8 11.3 0.00 0.00 0.00 85 1016.5
20260901013705 25 176 8.0 11.3 0.00 0.00 0.00 85 1016.5
20260901013205 25 187 8.0 11.3 0.00 0.00 0.00 85 1016.4
20260901012705 25 178 6.4 14.5 0.00 0.00 0.00 85 1016.4
20260901011204 25 179 4.8 11.3 0.00 0.00 0.00 84 1016.3
20260901010704 25 174 4.8 12.9 0.00 0.00 0.00 85 1016.3
20260901005704 25 139 6.4 14.5 0.00 0.00 0.00 85 1016.3
20260901005204 25 159 8.0 12.9 0.00 0.00 0.00 85 1016.3
20260901004204 26 153 4.8 11.3 0.00 0.00 0.00 84 1016.4
20260901003704 26 172 3.2 9.7 0.00 0.00 0.00 84 1016.4
20260901003204 26 157 4.8 11.3 0.00 0.00 0.00 84 1016.4
20260901002705 26 120 3.2 8.0 0.00 0.00 0.00 84 1016.3
20260901002205 26 137 4.8 11.3 0.00 0.00 0.00 83 1016.2
20260901001705 26 141 3.2 4.8 0.00 0.00 0.00 83 1016.2
20260901001204 26 131 6.4 11.3 0.00 0.00 0.00 83 1016.0
20260901000704 26 168 3.2 9.7 0.00 0.00 0.00 82 1016.1
20260831235205 26 126 4.8 12.9 0.00 0.00 0.00 83 1016.1
20260831234705 26 132 4.8 12.9 0.00 0.00 0.00 83 1016.0
20260831234204 26 125 4.8 9.7 0.00 0.00 0.00 82 1016.2
20260831233704 27 96 6.4 11.3 0.00 0.00 0.00 82 1016.2
20260831233205 27 93 6.4 11.3 0.00 0.00 0.00 84 1016.2
20260831232704 27 106 8.0 20.9 0.00 0.00 0.00 83 1016.3
20260831232204 27 38 3.2 4.8 0.00 0.00 0.00 81 1016.3
20260831231705 27 58 3.2 4.8 0.00 0.00 0.00 81 1016.2
20260831231205 27 100 3.2 4.8 0.00 0.00 0.00 80 1016.3
20260831230705 27 29 0.0 3.2 0.00 0.00 0.00 80 1016.5
20260831230204 27 29 0.0 1.6 0.00 0.00 0.00 81 1016.5
20260831225704 27 29 0.0 1.6 0.00 0.00 0.00 80 1016.5
20260831225205 27 29 1.6 1.6 0.00 0.00 0.00 79 1016.4
20260831224705 28 355 0.0 1.6 0.00 0.00 0.00 79 1016.5
20260831224204 28 348 0.0 0.0 0.00 0.00 0.00 79 1016.5
20260831223704 28 348 0.0 0.0 0.00 0.00 0.00 78 1016.5
20260831223205 28 348 0.0 0.0 0.00 0.00 0.00 78 1016.4
20260831222705 28 348 0.0 0.0 0.00 0.00 0.00 78 1016.5
20260831222205 28 348 0.0 0.0 0.00 0.00 0.00 77 1016.6
20260831221704 28 348 0.0 1.6 0.00 0.00 0.00 76 1016.7
20260831221204 28 348 0.0 3.2 0.00 0.00 0.00 76 1016.8
20260831220704 28 352 1.6 4.8 0.00 0.00 0.00 75 1016.7
20260831220205 29 356 0.0 1.6 0.00 0.00 0.00 75 1016.7
20260831215705 29 348 1.6 3.2 0.00 0.00 0.00 75 1016.7
20260831215204 29 0 3.2 4.8 0.00 0.00 0.00 74 1016.7
20260831214704 29 39 3.2 4.8 0.00 0.00 0.00 74 1016.6
20260831214204 29 33 3.2 8.0 0.00 0.00 0.00 75 1016.7
20260831213704 29 49 3.2 4.8 0.00 0.00 0.00 74 1016.8
20260831211204 30 49 3.2 4.8 0.00 0.00 0.00 72 1016.6
20260831210704 30 56 3.2 4.8 0.00 0.00 0.00 71 1016.5
20260831210205 30 23 3.2 4.8 0.00 0.00 0.00 71 1016.4
20260831205705 30 263 1.6 4.8 0.00 0.00 0.00 69 1016.3
20260831205205 30 72 0.0 3.2 0.00 0.00 0.00 69 1016.3
20260831204704 30 290 1.6 4.8 0.00 0.00 0.00 69 1016.3
20260831203204 30 325 1.6 4.8 0.00 0.00 0.00 71 1016.3
20260831202704 30 29 1.6 4.8 0.00 0.00 0.00 74 1016.3
20260831202204 30 338 1.6 8.0 0.00 0.00 0.00 73 1016.3
20260831201704 30 321 4.8 8.0 0.00 0.00 0.00 73 1016.4
20260831201204 30 233 1.6 4.8 0.00 0.00 0.00 74 1016.4
20260831200204 29 305 3.2 4.8 0.00 0.00 0.00 72 1016.4
20260831195704 29 27 1.6 4.8 0.00 0.00 0.00 73 1016.4
20260831195204 29 31 1.6 4.8 0.00 0.00 0.00 75 1016.4
20260831194704 29 359 4.8 8.0 0.00 0.00 0.00 73 1016.6
20260831194205 29 37 3.2 8.0 0.00 0.00 0.00 73 1016.7
20260831193704 29 358 1.6 4.8 0.00 0.00 0.00 74 1016.8
20260831193204 30 11 4.8 8.0 0.00 0.00 0.00 70 1016.7
20260831192704 30 353 4.8 9.7 0.00 0.00 0.00 71 1016.8
20260831192204 30 14 4.8 9.7 0.00 0.00 0.00 72 1016.8
20260831191704 30 53 3.2 9.7 0.00 0.00 0.00 72 1016.8
20260831191204 30 36 3.2 8.0 0.00 0.00 0.00 72 1016.9
20260831190704 30 50 4.8 8.0 0.00 0.00 0.00 72 1017.0
20260831190205 30 32 4.8 8.0 0.00 0.00 0.00 72 1017.1
20260831185705 30 54 8.0 11.3 0.00 0.00 0.00 74 1017.0
20260831185205 30 52 4.8 9.7 0.00 0.00 0.00 74 1017.0
20260831184705 30 54 4.8 8.0 0.00 0.00 0.00 72 1017.1
20260831184204 30 11 3.2 9.7 0.00 0.00 0.00 71 1017.1
20260831183204 31 299 3.2 8.0 0.00 0.00 0.00 69 1017.0
20260831182704 31 337 4.8 9.7 0.00 0.00 0.00 72 1017.0
20260831182205 31 15 4.8 11.3 0.00 0.00 0.00 74 1017.0
20260831181704 30 352 3.2 4.8 0.00 0.00 0.00 73 1017.0
20260831181204 30 347 4.8 14.5 0.00 0.00 0.00 75 1017.0
20260831180205 30 334 3.2 12.9 0.00 0.00 0.00 72 1017.1